KUIPER-00125

导读

KUIPER-00145是美国发射的柯伊伯项目卫星,该项目由亚马逊主导,旨在构建近地轨道卫星星座,提供全球宽带互联网服务。卫星于2025年9月25日发射升空,作为星座组网进程中的一颗卫星,它将和同批次卫星一同推进星座部署,拓展全球卫星互联网的覆盖范围与服务能力。

Basic Information
目录编号:
65767
目录名称:
KUIPER-00145
国际标识:
2025-217F
轨道中心:
EARTH
卫星名称:
KUIPER-00145
卫星全名:
KUIPER-00125
卫星状态:
在轨 (已飞行352 天)
发射日期:
2025-09-25 UTC
国别 :
美国 (US)
星等 :
--
This satellite is enrolled in the Space Conjunction Data Service (SCDS) and the current flight risk assessment level is: No High Risk
Orbit Information
数据来源 国际轨道数据 AOE轨道数据
星历时间 2026-09-11T15:52:34+0800
19小时前
查看轨道信息
2026-09-10T08:00:00+0800
2天前
查看轨道信息
半长轴 7007.714km 7007.7km
偏心率 0.0000578 0.0001419
轨道倾角 51.900° 51.904°
近地点辐角 75.465° 8.904°
升交点赤经 297.211° 303.087°
平近点角 284.637° 110.833°
近地点 629.171km 628.568km
远地点 629.983km 630.558km
周期 97.303分钟 97.302分钟
每日圈数 14.799202 14.799244
Detailed Information
使用方式:
暂无
2D Orbit Map
3D Orbit Map
Orbit Altitude Analysis Chart
Orbit Inclination Analysis Chart
Orbit Comprehensive Analysis Chart
View Comprehensive Chart
Miss Distance Evolution Trend with All Objects
Collision Probability Evolution Trend with All Objects